Tempos de volta de RENTAL PROVA 24 - 19:30
KARTODROMO INTERNACIONAL GRANJA VIANA a funcionar KGV RACE TRACKS - CIRCUITO 101
Tempos de volta de RENTAL - PROVA 24 - 19:30


Hora do dia Volta Volta do Líder Volta Tm Velocidade
034 - LUCAS FAGUNDES DOS SANTOS - RENTAL
19:52:29.807 1 1 1:00.021 60,879
19:53:29.481 2 2 59.674 61,233
19:54:28.909 3 3 59.428 61,486
19:55:28.852 4 4 59.943 60,958
19:56:30.072 5 5 1:01.220 59,686
19:57:30.086 6 6 1:00.014 60,886
19:58:28.826 7 7 58.740 62,206
19:59:28.564 8 8 59.738 61,167
20:00:27.943 9 9 59.379 61,537
20:01:27.472 10 10 59.529 61,382
20:02:26.521 11 11 59.049 61,881
20:03:26.461 12 12 59.940 60,961
20:04:26.673 13 13 1:00.212 60,686
20:05:26.148 14 14 59.475 61,438
20:06:26.414 15 15 1:00.266 60,631
20:07:25.282 16 16 58.868 62,071
20:08:25.052 17 17 59.770 61,134
20:09:24.440 18 18 59.388 61,528
018 - KAUE BUCK - RENTAL
19:52:29.570 1 1 59.696 61,210
19:53:28.911 2 2 59.341 61,576
19:54:29.188 3 3 1:00.277 60,620
19:55:29.799 4 4 1:00.611 60,286
19:56:28.938 5 5 59.139 61,787
19:57:27.896 6 6 58.958 61,976
19:58:27.524 7 7 59.628 61,280
19:59:27.102 8 8 59.578 61,331
20:00:26.140 9 9 59.038 61,892
20:01:24.886 10 10 58.746 62,200
20:02:25.083 11 11 1:00.197 60,701
20:03:40.838 12 12 1:15.755 48,234
20:04:39.450 13 13 58.612 62,342
20:05:39.071 14 14 59.621 61,287
20:06:39.390 15 15 1:00.319 60,578
20:07:38.796 16 16 59.406 61,509
20:08:38.784 17 17 59.988 60,912
20:09:38.215 18 18 59.431 61,483
029 - ALEXANDRE PAPA BAPTISTA - RENTAL
19:52:30.209 1 1 59.976 60,924
19:53:29.840 2 2 59.631 61,277
19:54:29.898 3 3 1:00.058 60,841
19:55:29.974 4 4 1:00.076 60,823
19:56:29.925 5 5 59.951 60,950
19:57:30.563 6 6 1:00.638 60,259
19:58:31.546 7 7 1:00.983 59,918
19:59:32.127 8 8 1:00.581 60,316
20:00:31.579 9 9 59.452 61,461
20:01:32.619 10 10 1:01.040 59,862
20:02:32.554 11 11 59.935 60,966
20:03:32.929 12 12 1:00.375 60,522
20:04:32.278 13 13 59.349 61,568
20:05:33.175 14 14 1:00.897 60,003
20:06:32.949 15 15 59.774 61,130
20:07:32.476 16 16 59.527 61,384
20:08:38.645 17 17 1:06.169 55,222
20:09:38.776 18 18 1:00.131 60,767
046 - THOMAZ ROBERTO COSTA SANTOS - RENTAL
19:52:30.700 1 1 59.476 61,437
19:53:30.418 2 2 59.718 61,188
19:54:30.628 3 3 1:00.210 60,688
19:55:32.110 4 4 1:01.482 59,432
19:56:31.777 5 5 59.667 61,240
19:57:30.657 6 6 58.880 62,058
19:58:30.612 7 7 59.955 60,946
19:59:31.319 8 8 1:00.707 60,191
20:00:31.123 9 9 59.804 61,100
20:01:32.678 10 10 1:01.555 59,362
20:02:33.782 11 11 1:01.104 59,800
20:03:34.469 12 12 1:00.687 60,211
20:04:34.554 13 13 1:00.085 60,814
20:05:39.975 14 14 1:05.421 55,854
20:06:40.708 15 15 1:00.733 60,165
20:07:41.392 16 16 1:00.684 60,214
20:08:41.848 17 17 1:00.456 60,441
20:09:41.587 18 18 59.739 61,166
027 - GABRIEL STREFEZZA - RENTAL
19:52:40.639 1 1 1:03.472 57,569
19:53:43.310 2 2 1:02.671 58,304
19:54:47.392 3 3 1:04.082 57,021
19:55:51.543 4 4 1:04.151 56,959
19:56:58.523 5 5 1:06.980 54,554
19:58:01.641 6 6 1:03.118 57,892
19:59:04.828 7 7 1:03.187 57,828
20:00:08.423 8 8 1:03.595 57,457
20:01:10.184 9 9 1:01.761 59,164
20:02:13.229 10 10 1:03.045 57,959
20:03:20.819 11 11 1:07.590 54,061
20:04:23.162 12 12 1:02.343 58,611
20:05:26.082 13 13 1:02.920 58,074
20:06:28.263 14 15 1:02.181 58,764
20:07:30.395 15 16 1:02.132 58,810
20:08:37.799 16 17 1:07.404 54,210
20:09:39.691 17 18 1:01.892 59,038
004 - LEONARDO - RENTAL
19:52:42.906 1 1 1:05.472 55,810
19:53:49.056 2 2 1:06.150 55,238
19:54:52.483 3 3 1:03.427 57,610
19:55:55.179 4 4 1:02.696 58,281
19:56:59.600 5 5 1:04.421 56,721
19:58:04.605 6 6 1:05.005 56,211
19:59:09.344 7 7 1:04.739 56,442
20:00:16.503 8 8 1:07.159 54,408
20:01:20.120 9 9 1:03.617 57,437
20:02:24.670 10 10 1:04.550 56,607
20:03:30.711 11 12 1:06.041 55,329
20:04:32.802 12 13 1:02.091 58,849
20:05:33.966 13 14 1:01.164 59,741
20:06:40.095 14 15 1:06.129 55,256
20:07:45.614 15 16 1:05.519 55,770
20:08:46.969 16 17 1:01.355 59,555
20:09:48.132 17 18 1:01.163 59,742
055 - ANDRE LAHAM3 - RENTAL
19:52:45.224 1 1 1:05.313 55,946
19:53:51.123 2 2 1:05.899 55,448
19:54:56.459 3 3 1:05.336 55,926
19:56:00.734 4 4 1:04.275 56,849
19:57:05.644 5 5 1:04.910 56,293
19:58:10.074 6 6 1:04.430 56,713
19:59:14.052 7 7 1:03.978 57,113
20:00:24.862 8 8 1:10.810 51,603
20:01:30.217 9 10 1:05.355 55,910
20:02:33.059 10 11 1:02.842 58,146
20:03:43.452 11 12 1:10.393 51,909
20:04:47.489 12 13 1:04.037 57,061
20:05:57.061 13 14 1:09.572 52,521
20:07:00.481 14 15 1:03.420 57,616
20:08:03.944 15 16 1:03.463 57,577
20:09:09.155 16 17 1:05.211 56,033
20:10:14.021 17 18 1:04.866 56,332
019 - GABRIEL BARREIROS - RENTAL
19:52:44.891 1 1 1:07.891 53,822
19:53:50.707 2 2 1:05.816 55,518
19:54:56.615 3 3 1:05.908 55,441
19:56:12.750 4 4 1:16.135 47,994
19:57:20.253 5 5 1:07.503 54,131
19:58:26.740 6 6 1:06.487 54,958
19:59:35.608 7 8 1:08.868 53,058
20:00:43.613 8 9 1:08.005 53,731
20:01:49.087 9 10 1:05.474 55,808
20:02:53.865 10 11 1:04.778 56,408
20:03:59.986 11 12 1:06.121 55,262
20:05:06.600 12 13 1:06.614 54,853
20:06:13.421 13 14 1:06.821 54,683
20:07:20.837 14 15 1:07.416 54,201
20:08:42.712 15 17 1:21.875 44,629
20:09:48.375 16 18 1:05.663 55,648
016 - RENAN ASSALIN - RENTAL
19:53:14.355 1 1 1:15.105 48,652
19:54:19.925 2 2 1:05.570 55,727
19:55:22.490 3 3 1:02.565 58,403
19:56:24.515 4 4 1:02.025 58,912
19:57:27.564 5 5 1:03.049 57,955
19:58:43.818 6 7 1:16.254 47,919
19:59:47.216 7 8 1:03.398 57,636
20:00:52.144 8 9 1:04.928 56,278
20:02:13.447 9 10 1:21.303 44,943
20:03:15.965 10 11 1:02.518 58,447
20:04:17.304 11 12 1:01.339 59,571
20:05:19.344 12 13 1:02.040 58,897
20:06:23.465 13 14 1:04.121 56,986
20:07:25.506 14 16 1:02.041 58,897
20:08:47.766 15 17 1:22.260 44,420
20:09:50.160 16 18 1:02.394 58,563
049 - EDUARDO CHAVES - RENTAL
19:53:00.735 1 1 1:19.579 45,917
19:54:08.347 2 2 1:07.612 54,044
19:55:13.763 3 3 1:05.416 55,858
19:56:31.670 4 5 1:17.907 46,902
19:57:36.639 5 6 1:04.969 56,242
19:58:43.417 6 7 1:06.778 54,719
19:59:58.266 7 8 1:14.849 48,818
20:01:03.773 8 9 1:05.507 55,780
20:02:10.012 9 10 1:06.239 55,164
20:03:17.058 10 11 1:07.046 54,500
20:04:28.866 11 13 1:11.808 50,886
20:05:33.546 12 14 1:04.680 56,494
20:06:40.702 13 15 1:07.156 54,411
20:07:48.755 14 16 1:08.053 53,693
20:08:53.681 15 17 1:04.926 56,279
20:09:58.147 16 18 1:04.466 56,681
023 - RODRIGO SANTANA - RENTAL
19:52:57.378 1 1 1:09.094 52,884
19:54:04.956 2 2 1:07.578 54,071
19:55:12.931 3 3 1:07.975 53,755
19:56:22.300 4 4 1:09.369 52,675
19:57:30.298 5 6 1:07.998 53,737
19:58:50.722 6 7 1:20.424 45,434
19:59:57.320 7 8 1:06.598 54,867
20:01:04.832 8 9 1:07.512 54,124
20:02:10.943 9 10 1:06.111 55,271
20:03:22.174 10 11 1:11.231 51,298
20:04:27.919 11 13 1:05.745 55,578
20:05:33.157 12 14 1:05.238 56,010
20:06:44.820 13 15 1:11.663 50,989
20:07:51.826 14 16 1:07.006 54,532
20:08:58.749 15 17 1:06.923 54,600
20:10:06.045 16 18 1:07.296 54,297
052 - VICTOR OBERLE FARA - RENTAL
19:52:46.548 1 1 1:06.114 55,268
19:53:59.489 2 2 1:12.941 50,095
19:55:26.052 3 3 1:26.563 42,212
19:56:44.249 4 5 1:18.197 46,728
19:57:53.673 5 6 1:09.424 52,633
19:59:01.525 6 7 1:07.852 53,853
20:00:10.542 7 8 1:09.017 52,943
20:01:16.505 8 9 1:05.963 55,395
20:02:24.355 9 10 1:07.850 53,854
20:03:40.567 10 12 1:16.212 47,945
20:04:47.200 11 13 1:06.633 54,838
20:06:01.834 12 14 1:14.634 48,959
20:07:21.152 13 15 1:19.318 46,068
20:08:37.483 14 17 1:16.331 47,870
20:09:59.158 15 18 1:21.675 44,738
054 - PEDRO SERGIO SA BARBOZA - RENTAL
19:53:06.002 1 1 1:13.317 49,838
19:54:20.981 2 2 1:14.979 48,734
19:55:34.297 3 4 1:13.316 49,839
19:56:59.947 4 5 1:25.650 42,662
19:58:15.907 5 6 1:15.960 48,104
19:59:32.797 6 8 1:16.890 47,522
20:00:44.242 7 9 1:11.445 51,144
20:01:53.954 8 10 1:09.712 52,416
20:03:04.669 9 11 1:10.715 51,672
20:04:19.183 10 12 1:14.514 49,038
20:05:30.360 11 14 1:11.177 51,337
20:06:44.595 12 15 1:14.235 49,222
20:07:57.928 13 16 1:13.333 49,827
20:09:09.245 14 17 1:11.317 51,236
20:10:23.535 15 18 1:14.290 49,186
038 - WALLACE AMICO - RENTAL
19:53:25.823 1 1 1:12.113 50,670
19:54:36.661 2 3 1:10.838 51,582
19:55:48.573 3 4 1:11.912 50,812
19:56:58.527 4 5 1:09.954 52,234
19:58:04.545 5 6 1:06.018 55,349
19:59:21.163 6 7 1:16.618 47,691
20:00:30.218 7 9 1:09.055 52,914
20:01:37.799 8 10 1:07.581 54,068
20:03:00.163 9 11 1:22.364 44,364
20:04:10.275 10 12 1:10.112 52,117
20:05:19.350 11 13 1:09.075 52,899
20:06:26.298 12 14 1:06.948 54,580
20:07:41.946 13 16 1:15.648 48,303
20:09:04.456 14 17 1:22.510 44,286
20:10:32.061 15 18 1:27.605 41,710
039 - KESIO ALVES - RENTAL
19:53:14.069 1 1 1:07.878 53,832
19:54:30.382 2 3 1:16.313 47,882
19:55:35.945 3 4 1:05.563 55,733
19:57:23.467 4 5 1:47.522 33,984
19:58:39.336 5 7 1:15.869 48,162
19:59:59.478 6 8 1:20.142 45,594
20:01:05.288 7 9 1:05.810 55,523
20:02:23.993 8 10 1:18.705 46,427
20:03:50.494 9 12 1:26.501 42,242
20:04:58.638 10 13 1:08.144 53,622
20:06:08.198 11 14 1:09.560 52,530
20:07:14.751 12 15 1:06.553 54,904
20:08:20.763 13 16 1:06.012 55,354
20:09:38.515 14 18 1:17.752 46,996
011 - ELIZAVA HOFMAN - RENTAL
19:53:19.233 1 1 1:34.084 38,838
19:54:35.169 2 3 1:15.936 48,119
19:55:52.332 3 4 1:17.163 47,354
19:57:17.564 4 5 1:25.232 42,871
19:59:05.141 5 7 1:47.577 33,966
20:00:19.549 6 8 1:14.408 49,108
20:01:37.232 7 10 1:17.683 47,037
20:02:51.613 8 11 1:14.381 49,125
20:04:04.485 9 12 1:12.872 50,143
20:05:18.082 10 13 1:13.597 49,649
20:06:43.807 11 15 1:25.725 42,625
20:08:05.971 12 16 1:22.164 44,472
20:09:25.593 13 18 1:19.622 45,892
053 - LUCAS MATOS MARTINS - RENTAL
19:53:19.731 1 1 1:26.723 42,134
19:54:37.004 2 3 1:17.273 47,287
19:55:52.692 3 4 1:15.688 48,277
19:57:08.640 4 5 1:15.948 48,112
19:58:20.429 5 6 1:11.789 50,899
19:59:50.399 6 8 1:29.970 40,614
20:01:00.736 7 9 1:10.337 51,950
20:02:05.704 8 10 1:04.968 56,243
20:05:07.019 9 13 3:01.315 20,153
20:06:19.717 10 14 1:12.698 50,263
20:07:23.857 11 15 1:04.140 56,969
20:08:53.788 12 17 1:29.931 40,631
20:10:08.896 13 18 1:15.108 48,650
048 - ANA JULIA CAPPLLANO DA COSTA M - RENTAL
19:54:11.356 1 2 1:22.948 44,052
19:55:33.332 2 4 1:21.976 44,574
19:56:57.943 3 5 1:24.611 43,186
19:58:22.712 4 6 1:24.769 43,105
19:59:44.880 5 8 1:22.168 44,470
20:01:06.608 6 9 1:21.728 44,709
20:02:26.713 7 11 1:20.105 45,615
20:03:51.887 8 12 1:25.174 42,900
20:05:09.988 9 13 1:18.101 46,786
20:06:28.086 10 15 1:18.098 46,787
20:07:49.652 11 16 1:21.566 44,798
20:09:08.826 12 17 1:19.174 46,152
20:10:27.850 13 18 1:19.024 46,239
026 - BIANCA NUNES SIMON - RENTAL
19:53:26.599 1 1 1:23.166 43,936
19:54:56.341 2 3 1:29.742 40,717
19:56:21.291 3 4 1:24.950 43,014
19:57:54.330 4 6 1:33.039 39,274
19:59:19.673 5 7 1:25.343 42,815
20:00:43.931 6 9 1:24.258 43,367
20:02:05.307 7 10 1:21.376 44,903
20:03:50.584 8 12 1:45.277 34,708
20:05:14.838 9 13 1:24.254 43,369
20:06:32.793 10 15 1:17.955 46,873
20:08:00.948 11 16 1:28.155 41,450
20:09:20.573 12 17 1:19.625 45,890
20:10:42.326 13 18 1:21.753 44,696
022 - MARIANA ALVES - RENTAL
19:53:40.232 1 2 1:30.981 40,162
19:55:11.825 2 3 1:31.593 39,894
19:56:43.610 3 5 1:31.785 39,810
19:58:09.730 4 6 1:26.120 42,429
19:59:36.378 5 8 1:26.648 42,171
20:01:01.359 6 9 1:24.981 42,998
20:02:23.663 7 10 1:22.304 44,396
20:03:49.966 8 12 1:26.303 42,339
20:05:12.959 9 13 1:22.993 44,028
20:06:35.008 10 15 1:22.049 44,534
20:08:01.811 11 16 1:26.803 42,095
20:09:25.011 12 18 1:23.200 43,918
008 - BRUNO GABRIEL DOS SAN5TOS - RENTAL
19:54:09.842 1 2 1:42.445 35,668
19:55:57.033 2 4 1:47.191 34,089
19:57:42.637 3 6 1:45.604 34,601
19:59:25.708 4 7 1:43.071 35,451
20:01:06.636 5 9 1:40.928 36,204
20:02:43.823 6 11 1:37.187 37,598
20:04:14.946 7 12 1:31.123 40,100
20:05:46.237 8 14 1:31.291 40,026
20:07:18.793 9 15 1:32.556 39,479
20:08:59.996 10 17 1:41.203 36,106
20:10:34.370 11 18 1:34.374 38,718
Gerada em 12/06/2022 21:05